Lid_Strength_Index
13 13 12 12 13 13 12 13 14 14 14 15 15 15 16 16 17 17 17 17 17 17 17 17 17 17 16 16 16 17 17 17
13 13 13 13 14 14 14 15 15 15 16 16 17 17 17 17 17 17 17 17 18 18 18 18 17 17 17 17 17 17 17 17
14 14 14 15 15 16 16 16 16 17 17 17 17 17 18 18 18 17 18 18 18 17 17 17 17 17 17 18 18 17 17 17
14 14 15 15 16 16 17 17 17 18 18 18 18 18 19 18 19 19 18 17 17 17 17 18 17 18 18 17 17 17 17 17
14 15 16 16 16 17 18 18 18 18 18 18 19 19 19 19 18 17 17 17 17 17 17 17 17 17 16 17 17 17 16 16
14 15 16 16 17 17 17 17 17 18 19 19 19 19 18 18 18 18 18 17 17 17 17 17 16 16 17 17 17 17 17 16
13 14 15 16 16 16 17 18 18 19 19 18 18 18 18 18 18 18 18 18 18 17 17 17 15 14 14 15 16 16 17 17
12 13 14 15 16 16 17 17 17 18 18 18 18 18 18 18 18 18 18 18 18 18 17 17 16 14 14 14 16 17 17 17
11 12 13 14 15 16 16 17 17 18 18 18 18 18 19 19 19 19 19 19 19 18 18 17 16 14 14 14 16 17 17 17
11 12 13 15 16 16 17 17 18 18 18 18 18 19 19 19 19 19 19 19 19 17 18 17 17 15 14 15 16 16 17 17
12 14 14 15 15 16 17 17 18 18 18 18 18 18 18 18 18 19 19 18 17 16 17 17 18 16 15 15 16 17 17 18
14 14 15 15 15 16 17 17 17 18 18 18 18 18 17 18 19 19 19 18 18 18 18 18 18 18 15 15 16 17 18 18
15 16 16 15 15 16 17 17 17 17 18 18 18 17 18 19 19 19 19 19 20 20 20 19 18 17 16 16 15 16 17 17
16 17 17 16 15 16 16 17 17 17 19 18 18 18 19 20 20 21 20 21 21 21 22 21 20 20 17 16 16 15 17 16
17 17 17 16 15 15 16 17 16 17 19 19 20 21 21 19 19 21 23 23 21 21 22 22 21 20 19 19 19 17 16 18
18 17 17 16 16 16 17 17 18 19 21 20 20 22 22 22 22 21 21 21 24 24 22 24 22 19 16 16 18 18 18 25
20 16 17 16 17 17 17 17 18 20 21 21 22 24 23 24 24 19 17 16 16 16 17 19 17 16 16 15 15 14 17 27
20 20 18 16 17 18 18 18 20 21 22 24 24 24 24 25 24 24 21 18 18 18 18 17 17 17 16 16 15 16 21 29
23 24 19 18 20 25 21 21 23 23 25 24 24 25 26 24 23 23 23 23 22 20 19 19 18 17 17 16 20 25 25 29
24 26 25 25 29 31 29 26 27 25 27 27 26 25 23 23 23 23 24 24 24 24 23 22 20 18 18 19 29 30 32 32